Location: Heilbronn
(49.1548°N, 9.2780°E)
Time: 18:30:04
(UTC+01:00)

ISS - Pass Details

Date: 08 January 2018
Orbit: 402 x 407 km, 51.6° (Epoch: 19 January)

Event Time Altitude Azimuth Distance (km) Brightness Sun altitude
Exits shadow 06:38:55 34° 301° (WNW) 688 -3.2 -15.2°
Maximum altitude 06:40:08 66° 13° (NNE) 447 -3.7 -15.0°
Drops below altitude 10° 06:43:25 10° 97° (E) 1,468 0.4 -14.5°
Sets 06:45:31 0° 100° (E) 2,328 1.9 -14.1°
